Lake Hood, AK

3:29 PM AKST on December 16, 2017 (GMT -0900)
Lake Hood

Weather History for PALH - December, 2013

Change the Weather History Date:

Tuesday, December 10, 2013

  Actual Average Record
Temperature  
Mean Temperature 27 °F -  
Max Temperature 30 °F 20 °F 43 °F (2017)
Min Temperature 24 °F 11 °F 1 °F (1996)
Degree Days  
Heating Degree Days 38    
Moisture  
Dew Point 26 °F    
Average Humidity 89    
Maximum Humidity 96    
Minimum Humidity 72    
Precipitation  
Precipitation 0.00 in - - ()
Sea Level Pressure  
Sea Level Pressure 30.03 in    
Wind  
Wind Speed 5 mph (NNE)    
Max Wind Speed 12 mph    
Max Gust Speed -    
Visibility 7 miles    
Events Fog    
Averages and records for this station are not official NWS values.
T = Trace of Precipitation, MM = Missing Value Source: NWS Daily Summary

Daily Weather History Graph

Daily Weather History Graph

Search for Another Location

Airport or City:

Trip Planner

Search our weather history database for the weather conditions in past years. The results will help you decide how hot, cold, wet, or windy it might be!

Date:

Astronomy

Dec. 10, 2013 Rise Set
Actual Time 10:03 AM AKST 3:42 PM AKST
Civil Twilight 9:02 AM AKST 4:43 PM AKST
Nautical Twilight 8:03 AM AKST 5:42 PM AKST
Astronomical Twilight 7:09 AM AKST 6:35 PM AKST
Moon 1:23 PM AKST (12/10) 1:49 AM AKST (12/10)
Length of Visible Light 7h 41m
Length of Day
5h 39m
Waxing Gibbous, 63% of the Moon is Illuminated
Dec 10
Waxing Gibbous
Dec 17
Full
Dec 25
Last Quarter
Jan 1
New
Jan 7
First Quarter

Hourly Weather History & Observations

Time (AKST) Temp. Windchill Dew Point Humidity Pressure Visibility Wind Dir Wind Speed Gust Speed Precip Events Conditions
12:12 AM 30.2 °F 26.7 °F 28.4 °F 93% 30.23 in 2.0 mi North 3.5 mph - N/A   Overcast
12:53 AM 30.9 °F - 28.9 °F 92% 30.22 in 1.5 mi Calm Calm - N/A   Overcast
1:05 AM 30.2 °F - 28.4 °F 93% 30.22 in 2.0 mi Calm Calm - N/A   Overcast
1:53 AM 30.0 °F - 28.9 °F 96% 30.22 in 3.0 mi Calm Calm - N/A   Overcast
2:16 AM 30.2 °F - 28.4 °F 93% 30.20 in 2.5 mi Calm Calm - N/A   Overcast
2:29 AM 30.2 °F 26.7 °F 28.4 °F 93% 30.19 in 1.0 mi NE 3.5 mph - N/A   Overcast
3:00 AM 30.2 °F 25.4 °F 28.4 °F 93% 30.19 in 0.5 mi NNE 4.6 mph - N/A   Overcast
3:53 AM 30.0 °F 25.2 °F 28.0 °F 92% 30.17 in 0.5 mi NNE 4.6 mph - N/A   Mist
4:53 AM 30.0 °F 24.1 °F 28.0 °F 92% 30.15 in 0.5 mi NNE 5.8 mph - N/A   Overcast
5:53 AM 30.0 °F 25.2 °F 28.0 °F 92% 30.13 in 0.5 mi NNE 4.6 mph - N/A Fog Light Freezing Fog
6:49 AM 30.2 °F 24.3 °F 28.4 °F 93% 30.11 in 9.0 mi North 5.8 mph - N/A   Overcast
6:53 AM 30.0 °F 25.2 °F 28.0 °F 92% 30.12 in 9.0 mi North 4.6 mph - N/A   Overcast
7:37 AM 30.2 °F 25.4 °F 28.4 °F 93% 30.10 in 0.5 mi NNE 4.6 mph - N/A   Overcast
7:53 AM 30.0 °F 24.1 °F 28.0 °F 92% 30.10 in 0.5 mi NNE 5.8 mph - N/A   Overcast
8:53 AM 30.0 °F 24.1 °F 28.0 °F 92% 30.08 in 0.5 mi NNE 5.8 mph - N/A   Overcast
9:33 AM 30.2 °F 23.4 °F 28.4 °F 93% 30.07 in 9.0 mi NNE 6.9 mph - N/A   Overcast
9:53 AM 30.0 °F 25.2 °F 27.0 °F 88% 30.07 in 10.0 mi NNE 4.6 mph - N/A   Overcast
10:53 AM 30.0 °F 21.7 °F 27.0 °F 88% 30.05 in 10.0 mi NNE 9.2 mph - N/A   Overcast
12:53 PM 28.9 °F 23.9 °F 27.0 °F 92% 30.02 in 10.0 mi NNE 4.6 mph - N/A   Unknown
1:53 PM 28.9 °F 22.8 °F 27.0 °F 92% 30.01 in 10.0 mi NNE 5.8 mph - N/A   Unknown
2:02 PM 28.4 °F 22.2 °F 26.6 °F 93% 30.00 in 10.0 mi NNE 5.8 mph - N/A   Overcast
2:53 PM 28.9 °F 21.9 °F 26.1 °F 89% 29.99 in 10.0 mi NNE 6.9 mph - N/A   Overcast
3:28 PM 28.4 °F 22.2 °F 26.6 °F 93% 29.97 in 8.0 mi NNE 5.8 mph - N/A   Overcast
3:53 PM 28.9 °F 21.9 °F 26.1 °F 89% 29.96 in 10.0 mi NNE 6.9 mph - N/A   Overcast
4:20 PM 28.4 °F 19.7 °F 24.8 °F 86% 29.95 in 10.0 mi NNE 9.2 mph - N/A   Overcast
4:53 PM 28.0 °F 19.3 °F 25.0 °F 88% 29.95 in 10.0 mi NNE 9.2 mph - N/A   Overcast
5:01 PM 28.4 °F 19.1 °F 24.8 °F 86% 29.94 in 10.0 mi NNE 10.4 mph - N/A   Overcast
5:53 PM 28.0 °F 18.1 °F 24.1 °F 85% 29.92 in 10.0 mi North 11.5 mph - N/A   Overcast
6:53 PM 27.0 °F 18.7 °F 24.1 °F 89% 29.90 in 10.0 mi North 8.1 mph - N/A   Overcast
7:04 PM 26.6 °F 17.5 °F 24.8 °F 93% 29.89 in 10.0 mi North 9.2 mph - N/A   Overcast
7:53 PM 27.0 °F 17.3 °F 21.9 °F 81% 29.88 in 10.0 mi North 10.4 mph - N/A   Overcast
8:53 PM 27.0 °F 19.5 °F 21.0 °F 78% 29.86 in 10.0 mi NNE 6.9 mph - N/A   Overcast
9:53 PM 25.0 °F 16.3 °F 19.0 °F 78% 29.83 in 10.0 mi NE 8.1 mph - N/A   Overcast
10:53 PM 25.0 °F 16.3 °F 18.0 °F 75% 29.81 in 10.0 mi NNE 8.1 mph - N/A   Overcast
11:04 PM 24.8 °F 17.9 °F 17.6 °F 74% 29.80 in 10.0 mi North 5.8 mph - N/A   Overcast
11:53 PM 25.0 °F 17.1 °F 17.1 °F 72% 29.79 in 10.0 mi North 6.9 mph - N/A   Overcast